KD8BMB Weather Reports


time (UTC)temp
C
wind
direction
speed
KPH
gust
KPH
rain 1hr
cm
rain 24hr
cm
rain mn
cm
humidity
%
barometer
mb
20260508124743 9 225 0.0 0.0 0.00 0.00 0.00 67 1011.9
20260508124239 9 212 0.0 0.0 0.00 0.00 0.00 70 1012.0
20260508123738 8 293 0.0 0.0 0.00 0.00 0.00 75 1011.8
20260508123235 8 216 0.0 0.0 0.00 0.00 0.00 76 1012.0
20260508122731 7 289 0.0 0.0 0.00 0.00 0.00 82 1011.9
20260508122228 6 272 0.0 0.0 0.00 0.00 0.00 90 1011.9
20260508121726 6 262 0.0 0.0 0.00 0.00 0.00 95 1011.9
20260508121224 5 213 0.0 0.0 0.00 0.00 0.00 99 1011.5
20260508120721 5 292 0.0 0.0 0.00 0.00 0.00 99 1011.6
20260508120219 5 292 0.0 0.0 0.00 0.00 0.00 99 1011.6
20260508115716 4 222 0.0 0.0 0.00 0.00 0.00 99 1011.7
20260508115214 4 274 0.0 0.0 0.00 0.00 0.00 99 1011.6
20260508114710 3 313 0.0 0.0 0.00 0.00 0.00 99 1011.4
20260508114207 3 293 0.0 0.0 0.00 0.00 0.00 99 1011.6
20260508113703 3 292 0.0 0.0 0.00 0.00 0.00 99 1011.4
20260508113202 3 300 0.0 0.0 0.00 0.00 0.00 99 1011.3
20260508112658 3 320 0.0 0.0 0.00 0.00 0.00 99 1011.3
20260508112155 3 325 0.0 0.0 0.00 0.00 0.00 99 1011.2
20260508111651 2 322 0.0 0.0 0.00 0.00 0.00 99 1011.4
20260508111149 2 347 0.0 0.0 0.00 0.00 0.00 99 1011.4
20260508110646 1 315 0.0 0.0 0.00 0.00 0.00 99 1011.4
20260508110143 1 315 0.0 0.0 0.00 0.00 0.00 99 1011.2
20260508105638 1 315 0.0 0.0 0.00 0.00 0.00 99 1011.3
20260508105135 1 315 0.0 0.0 0.00 0.00 0.00 99 1011.3
20260508104633 1 312 0.0 0.0 0.00 0.00 0.00 99 1011.6
20260508104129 0 312 0.0 0.0 0.00 0.00 0.00 99 1011.4
20260508103626 1 311 0.0 0.0 0.00 0.00 0.00 99 1011.4
20260508103123 1 297 0.0 0.0 0.00 0.00 0.00 99 1011.4
20260508102621 1 294 0.0 0.0 0.00 0.00 0.00 99 1011.5
20260508102119 1 294 0.0 0.0 0.00 0.00 0.00 99 1011.6
20260508101616 1 294 0.0 0.0 0.00 0.00 0.00 99 1011.4
20260508101113 1 291 0.0 0.0 0.00 0.00 0.00 99 1011.5
20260508100610 1 289 0.0 0.0 0.00 0.00 0.00 99 1011.4
20260508100108 1 299 0.0 0.0 0.00 0.00 0.00 99 1011.3
20260508095604 1 311 0.0 0.0 0.00 0.00 0.00 99 1011.4
20260508095101 1 311 0.0 0.0 0.00 0.00 0.00 99 1011.4
20260508094559 1 336 0.0 0.0 0.00 0.00 0.00 99 1011.4
20260508094055 1 311 0.0 0.0 0.00 0.00 0.00 99 1011.5
20260508093553 1 320 0.0 0.0 0.00 0.00 0.00 99 1011.4
20260508093050 2 324 0.0 0.0 0.00 0.00 0.00 99 1011.6
20260508092547 2 296 0.0 0.0 0.00 0.00 0.00 99 1011.6
20260508092046 2 295 0.0 0.0 0.00 0.00 0.00 99 1011.5
20260508091542 2 311 0.0 0.0 0.00 0.00 0.00 99 1011.7
20260508091039 2 314 0.0 0.0 0.00 0.00 0.00 99 1011.6
20260508090538 2 305 0.0 0.0 0.00 0.00 0.00 99 1011.7
20260508090034 2 306 0.0 0.0 0.00 0.00 0.00 99 1011.5
20260508085530 2 305 0.0 0.0 0.00 0.00 0.00 99 1011.7
20260508085028 2 291 0.0 0.0 0.00 0.00 0.00 99 1011.7
20260508084525 3 291 0.0 0.0 0.00 0.00 0.00 99 1011.7
20260508084022 3 286 0.0 0.0 0.00 0.00 0.00 99 1011.6
20260508083519 3 283 0.0 0.0 0.00 0.00 0.00 99 1011.5
20260508083015 3 306 0.0 0.0 0.00 0.00 0.00 99 1011.7
20260508082511 3 325 0.0 0.0 0.00 0.00 0.00 99 1011.6
20260508082009 3 332 0.0 0.0 0.00 0.00 0.00 99 1011.8
20260508081506 3 285 0.0 0.0 0.00 0.00 0.00 99 1011.6
20260508081002 3 285 0.0 0.0 0.00 0.00 0.00 99 1011.8
20260508080500 3 292 0.0 0.0 0.00 0.00 0.00 99 1011.6
20260508075957 3 307 0.0 0.0 0.00 0.00 0.00 99 1011.8
20260508075454 3 291 0.0 0.0 0.00 0.00 0.00 99 1011.7
20260508074951 3 302 0.0 0.0 0.00 0.00 0.00 99 1011.7
20260508074449 4 301 0.0 0.0 0.00 0.00 0.00 99 1011.7
20260508073945 4 316 0.0 0.0 0.00 0.00 0.00 98 1011.6
20260508073443 4 298 0.0 0.0 0.00 0.00 0.00 98 1011.6
20260508072940 5 283 0.0 0.0 0.00 0.00 0.00 98 1011.5
20260508072436 5 282 0.0 0.0 0.00 0.00 0.00 97 1011.5
20260508071934 5 288 0.0 0.0 0.00 0.00 0.00 97 1011.5
20260508071431 5 309 0.0 0.0 0.00 0.00 0.00 96 1011.5
20260508070929 5 310 0.0 0.0 0.00 0.00 0.00 96 1011.4
20260508070427 5 309 0.0 0.0 0.00 0.00 0.00 95 1011.5
20260508065924 5 284 0.0 0.0 0.00 0.00 0.00 95 1011.6
20260508065422 5 262 0.0 0.0 0.00 0.00 0.00 95 1011.7
20260508064920 5 235 0.0 0.0 0.00 0.00 0.00 95 1011.6
20260508064417 5 318 0.0 0.0 0.00 0.00 0.00 94 1011.6
20260508063915 5 313 0.0 0.0 0.00 0.00 0.00 94 1011.5
20260508063412 5 289 0.0 0.0 0.00 0.00 0.00 94 1011.3
20260508062909 5 259 0.0 0.0 0.00 0.00 0.00 93 1011.3
20260508062407 5 244 0.0 0.0 0.00 0.00 0.00 93 1011.8
20260508061904 5 279 0.0 0.0 0.00 0.00 0.00 93 1011.5
20260508061401 5 258 0.0 0.0 0.00 0.00 0.00 93 1011.9
20260508060857 5 284 0.0 0.0 0.00 0.00 0.00 93 1011.7
20260508060355 6 281 0.0 0.0 0.00 0.00 0.00 94 1011.7
20260508055850 6 281 0.0 0.0 0.00 0.00 0.00 93 1011.8
20260508055348 6 251 0.0 0.0 0.00 0.00 0.00 92 1012.0
20260508054844 6 268 0.0 0.0 0.00 0.00 0.00 90 1012.2
20260508054342 6 279 0.0 0.0 0.00 0.00 0.00 88 1011.9
20260508053838 6 84 0.0 1.6 0.00 0.00 0.00 87 1011.7
20260508053336 6 80 0.0 0.0 0.00 0.00 0.00 89 1011.9
20260508052833 6 325 0.0 0.0 0.00 0.00 0.00 91 1011.8
20260508052330 6 320 0.0 0.0 0.00 0.00 0.00 91 1011.9
20260508051826 6 331 0.0 0.0 0.00 0.00 0.00 91 1011.7
20260508051322 6 87 0.0 0.0 0.00 0.00 0.00 92 1011.9
20260508050818 6 329 0.0 0.0 0.00 0.00 0.00 92 1012.0
20260508050316 6 328 0.0 0.0 0.00 0.00 0.00 91 1011.7
20260508045811 6 19 0.0 0.0 0.00 0.00 0.00 91 1011.7
20260508045309 6 346 0.0 0.0 0.00 0.00 0.00 91 1011.9
20260508044807 6 49 0.0 0.0 0.00 0.00 0.00 92 1011.9
20260508044303 6 280 0.0 0.0 0.00 0.00 0.00 91 1012.0
20260508043759 6 281 0.0 0.0 0.00 0.00 0.00 90 1011.9
20260508043257 6 281 0.0 0.0 0.00 0.00 0.00 90 1011.9
20260508042753 6 281 0.0 0.0 0.00 0.00 0.00 90 1011.7
20260508042251 6 295 0.0 0.0 0.00 0.00 0.00 89 1011.9
20260508041747 6 284 0.0 0.0 0.00 0.00 0.00 88 1011.6
20260508041244 6 65 0.0 0.0 0.00 0.00 0.00 88 1011.5
20260508040740 6 266 0.0 0.0 0.00 0.00 0.00 88 1011.8
20260508040238 6 309 0.0 0.0 0.00 0.00 0.00 88 1012.1
20260508035735 6 305 0.0 0.0 0.00 0.00 0.00 88 1011.9
20260508035232 6 305 0.0 0.0 0.00 0.00 0.00 87 1011.8
20260508034729 6 282 0.0 0.0 0.00 0.00 0.00 87 1011.8
20260508034226 6 288 0.0 0.0 0.00 0.00 0.00 85 1011.7
20260508033723 6 309 0.0 0.0 0.00 0.00 0.00 85 1011.8
20260508033222 6 310 0.0 0.0 0.00 0.00 0.00 84 1012.0
20260508032719 6 310 0.0 0.0 0.00 0.00 0.00 83 1011.7
20260508032216 6 305 0.0 0.0 0.00 0.00 0.00 82 1011.8
20260508031712 6 286 0.0 0.0 0.00 0.00 0.00 81 1011.3
20260508031209 6 282 0.0 0.0 0.00 0.00 0.00 80 1011.5
20260508030705 6 301 0.0 0.0 0.00 0.00 0.00 79 1011.7
20260508030203 6 347 0.0 0.0 0.00 0.00 0.00 78 1011.7
20260508025659 6 299 0.0 0.0 0.00 0.00 0.00 77 1011.7
20260508025156 6 299 0.0 0.0 0.00 0.00 0.00 75 1011.9
20260508024652 7 279 0.0 0.0 0.00 0.00 0.00 73 1011.5
20260508024149 7 29 0.0 0.0 0.00 0.00 0.00 73 1011.6
20260508023645 7 358 1.6 1.6 0.00 0.00 0.00 71 1011.7
20260508023143 7 321 0.0 0.0 0.00 0.00 0.00 70 1011.9
20260508022638 7 334 1.6 1.6 0.00 0.00 0.00 70 1011.6
20260508022136 7 45 1.6 1.6 0.00 0.00 0.00 69 1011.7
20260508021632 7 69 0.0 1.6 0.00 0.00 0.00 68 1011.7
20260508021127 8 4 0.0 0.0 0.00 0.00 0.00 62 1012.1
20260508020626 8 273 1.6 1.6 0.00 0.00 0.00 60 1012.1
20260508020123 7 295 3.2 3.2 0.00 0.00 0.00 59 1012.0
20260508015620 7 324 0.0 0.0 0.00 0.00 0.00 60 1011.7
20260508015117 7 321 4.8 4.8 0.00 0.00 0.00 61 1011.5
20260508014613 8 324 0.0 0.0 0.00 0.00 0.00 61 1011.2
20260508014110 8 303 0.0 0.0 0.00 0.00 0.00 60 1011.3
20260508013606 8 299 0.0 0.0 0.00 0.00 0.00 59 1011.2
20260508013103 8 296 0.0 0.0 0.00 0.00 0.00 59 1011.2
20260508012601 8 264 0.0 0.0 0.00 0.00 0.00 58 1011.1
20260508012058 8 305 1.6 3.2 0.00 0.00 0.00 57 1011.3
20260508011556 9 314 3.2 3.2 0.00 0.00 0.00 56 1011.1
20260508011053 9 311 3.2 3.2 0.00 0.00 0.00 55 1011.0
20260508010549 9 309 6.4 8.0 0.00 0.00 0.00 55 1010.9
20260508010047 9 296 0.0 0.0 0.00 0.00 0.00 54 1010.8
20260508005543 9 347 0.0 0.0 0.00 0.00 0.00 54 1011.0
20260508005040 9 313 1.6 3.2 0.00 0.00 0.00 54 1011.0
20260508004536 9 273 3.2 4.8 0.00 0.00 0.00 54 1010.9
20260508004033 9 302 0.0 0.0 0.00 0.00 0.00 54 1011.1
20260508003530 10 279 1.6 1.6 0.00 0.00 0.00 54 1010.9
20260508003027 10 244 8.0 9.7 0.00 0.00 0.00 52 1010.6
20260508002523 10 186 3.2 3.2 0.00 0.00 0.00 53 1010.9
20260508002021 10 254 0.0 0.0 0.00 0.00 0.00 53 1010.9
20260508001516 10 201 11.3 14.5 0.00 0.00 0.00 51 1010.8
20260508001013 10 169 4.8 9.7 0.00 0.00 0.00 51 1010.8
20260508000509 10 358 1.6 3.2 0.00 0.00 0.00 50 1010.9
20260508000006 10 289 4.8 4.8 0.00 0.00 0.00 50 1010.9
20260507235503 10 217 4.8 8.0 0.00 0.00 0.00 49 1010.6
20260507235000 10 322 3.2 4.8 0.00 0.00 0.00 49 1010.6
20260507234457 11 317 12.9 22.5 0.00 0.00 0.00 48 1010.6
20260507233953 11 293 4.8 8.0 0.00 0.00 0.00 47 1010.7
20260507233450 11 290 4.8 4.8 0.00 0.00 0.00 47 1010.6
20260507232949 11 290 8.0 11.3 0.00 0.00 0.00 46 1010.6
20260507232444 11 278 4.8 4.8 0.00 0.00 0.00 46 1010.6
20260507231942 11 227 11.3 16.1 0.00 0.00 0.00 45 1010.6
20260507231438 11 322 8.0 9.7 0.00 0.00 0.00 45 1010.5
20260507230935 11 234 3.2 3.2 0.00 0.00 0.00 46 1010.5
20260507230432 11 312 3.2 3.2 0.00 0.00 0.00 46 1010.6
20260507225933 11 302 9.7 17.7 0.00 0.00 0.00 45 1010.7
20260507225429 11 261 1.6 3.2 0.00 0.00 0.00 45 1010.6
20260507224925 11 289 3.2 3.2 0.00 0.00 0.00 46 1010.7
20260507224421 11 268 6.4 9.7 0.00 0.00 0.00 46 1010.7
20260507223918 11 311 3.2 4.8 0.00 0.00 0.00 46 1010.8
20260507223414 11 261 11.3 16.1 0.00 0.00 0.00 45 1010.8
20260507222911 11 287 3.2 4.8 0.00 0.00 0.00 45 1010.8
20260507222408 12 286 9.7 11.3 0.00 0.00 0.00 45 1010.6
20260507221905 12 21 0.0 0.0 0.00 0.00 0.00 45 1010.6
20260507221401 11 271 11.3 16.1 0.00 0.00 0.00 46 1010.8
20260507220857 11 249 8.0 9.7 0.00 0.00 0.00 46 1011.0
20260507220355 11 221 4.8 8.0 0.00 0.00 0.00 47 1010.8
20260507215852 11 284 6.4 9.7 0.00 0.00 0.00 46 1010.9
20260507215349 12 220 8.0 9.7 0.00 0.00 0.00 45 1010.8
20260507214846 11 283 14.5 17.7 0.00 0.00 0.00 46 1010.8
20260507214343 11 231 8.0 9.7 0.00 0.00 0.00 46 1010.8
20260507213838 11 234 6.4 9.7 0.00 0.00 0.00 47 1010.9
20260507213335 11 282 4.8 4.8 0.00 0.00 0.00 47 1010.8
20260507212832 11 287 12.9 16.1 0.00 0.00 0.00 46 1010.8
20260507212328 11 188 8.0 11.3 0.00 0.00 0.00 46 1010.7
20260507211824 11 229 11.3 17.7 0.00 0.00 0.00 46 1011.0
20260507211321 12 241 12.9 17.7 0.00 0.00 0.00 45 1010.9
20260507210818 11 245 1.6 1.6 0.00 0.00 0.00 46 1010.8
20260507210315 11 268 1.6 3.2 0.00 0.00 0.00 46 1010.9
20260507205811 11 246 3.2 3.2 0.00 0.00 0.00 46 1010.8
20260507205309 11 250 4.8 8.0 0.00 0.00 0.00 45 1010.8
20260507204804 11 239 3.2 4.8 0.00 0.00 0.00 45 1011.1
20260507204302 12 283 9.7 14.5 0.00 0.00 0.00 43 1011.0
20260507203800 11 320 11.3 14.5 0.00 0.00 0.00 45 1010.9
20260507203258 11 276 1.6 3.2 0.00 0.00 0.00 46 1010.8
20260507202754 11 243 3.2 3.2 0.00 0.00 0.00 47 1011.0
20260507202249 11 272 4.8 11.3 0.00 0.00 0.00 45 1011.1
20260507201744 11 249 12.9 16.1 0.00 0.00 0.00 44 1011.1
20260507201241 12 229 6.4 8.0 0.00 0.00 0.00 44 1011.1
20260507200738 12 317 9.7 17.7 0.00 0.00 0.00 43 1011.3
20260507200234 11 293 4.8 9.7 0.00 0.00 0.00 44 1011.2
20260507195730 12 216 8.0 14.5 0.00 0.00 0.00 44 1011.2
20260507195228 12 331 4.8 8.0 0.00 0.00 0.00 44 1011.2
20260507194725 12 344 4.8 8.0 0.00 0.00 0.00 44 1011.4
20260507194221 12 356 0.0 1.6 0.00 0.00 0.00 42 1011.3
20260507193718 11 84 3.2 8.0 0.00 0.00 0.00 45 1011.5
20260507193214 10 297 12.9 17.7 0.00 0.00 0.00 46 1011.5
20260507192710 11 232 6.4 9.7 0.00 0.00 0.00 45 1011.6
20260507192208 11 174 14.5 20.9 0.00 0.00 0.00 48 1011.5
20260507191703 11 285 11.3 12.9 0.00 0.00 0.00 46 1011.6
20260507191201 12 277 6.4 9.7 0.00 0.00 0.00 47 1011.6
20260507190657 10 279 1.6 3.2 0.00 0.00 0.00 48 1011.7
20260507190156 10 246 3.2 8.0 0.00 0.00 0.00 49 1011.8
20260507185654 10 252 4.8 4.8 0.00 0.00 0.00 48 1011.5
20260507185150 10 309 0.0 1.6 0.00 0.00 0.00 48 1011.9
20260507184648 10 329 8.0 9.7 0.00 0.00 0.00 46 1011.6
20260507184146 11 304 8.0 9.7 0.00 0.00 0.00 47 1012.0
20260507183642 11 215 3.2 8.0 0.00 0.00 0.00 46 1011.7
20260507183139 11 275 3.2 4.8 0.00 0.00 0.00 49 1011.9
20260507182636 10 253 11.3 14.5 0.00 0.00 0.00 49 1011.9
20260507182132 10 256 9.7 12.9 0.00 0.00 0.00 49 1011.8
20260507181628 10 328 1.6 1.6 0.00 0.00 0.00 50 1012.1
20260507181125 10 233 8.0 12.9 0.00 0.00 0.00 49 1012.2
20260507180621 10 281 8.0 11.3 0.00 0.00 0.00 50 1012.2
20260507180119 10 271 9.7 12.9 0.00 0.00 0.00 51 1012.3
20260507175614 9 220 9.7 14.5 0.00 0.00 0.00 51 1012.2
20260507175112 10 275 4.8 8.0 0.00 0.00 0.00 50 1012.3
20260507174609 10 294 4.8 4.8 0.00 0.00 0.00 49 1012.2
20260507174107 10 286 3.2 8.0 0.00 0.00 0.00 50 1012.1
20260507173604 9 2 1.6 3.2 0.00 0.00 0.00 53 1012.6
20260507173100 9 329 4.8 4.8 0.00 0.00 0.00 53 1012.5
20260507172556 10 273 4.8 4.8 0.00 0.00 0.00 52 1012.4
20260507172054 10 324 0.0 1.6 0.00 0.00 0.00 52 1012.6
20260507171549 10 214 1.6 3.2 0.00 0.00 0.00 53 1012.7
20260507171046 10 290 11.3 14.5 0.00 0.00 0.00 51 1012.7
20260507170543 10 266 4.8 4.8 0.00 0.00 0.00 53 1012.6
20260507170040 10 215 12.9 16.1 0.00 0.00 0.00 52 1012.6
20260507165535 10 255 8.0 9.7 0.00 0.00 0.00 53 1012.6
20260507165032 10 214 3.2 3.2 0.00 0.00 0.00 52 1012.7
20260507164528 10 271 8.0 9.7 0.00 0.00 0.00 51 1012.7
20260507164026 10 267 4.8 8.0 0.00 0.00 0.00 53 1012.5
20260507163522 10 193 8.0 9.7 0.00 0.00 0.00 51 1012.6
20260507163021 10 301 3.2 4.8 0.00 0.00 0.00 51 1013.2
20260507162515 10 294 4.8 8.0 0.00 0.00 0.00 51 1013.0
20260507162012 10 317 3.2 4.8 0.00 0.00 0.00 50 1012.9
20260507161509 10 299 9.7 12.9 0.00 0.00 0.00 52 1012.9
20260507161006 10 262 6.4 9.7 0.00 0.00 0.00 53 1013.2
20260507160501 10 227 8.0 11.3 0.00 0.00 0.00 53 1013.2
20260507155957 10 281 6.4 8.0 0.00 0.00 0.00 51 1013.0
20260507155453 9 210 8.0 9.7 0.00 0.00 0.00 53 1013.2
20260507154950 9 270 14.5 17.7 0.00 0.00 0.00 53 1012.7
20260507154447 10 306 3.2 4.8 0.00 0.00 0.00 56 1013.1
20260507153944 10 217 8.0 12.9 0.00 0.00 0.00 56 1013.0
20260507153441 9 262 11.3 14.5 0.00 0.00 0.00 54 1013.2
20260507152937 10 191 14.5 20.9 0.00 0.00 0.00 54 1013.0
20260507152433 10 198 4.8 8.0 0.00 0.00 0.00 58 1013.0
20260507151930 10 209 6.4 9.7 0.00 0.00 0.00 56 1012.9
20260507151426 10 260 4.8 4.8 0.00 0.00 0.00 58 1013.0
20260507150923 9 244 1.6 3.2 0.00 0.00 0.00 60 1013.0
20260507150420 10 214 6.4 9.7 0.00 0.00 0.00 60 1013.0
20260507145916 10 12 8.0 12.9 0.00 0.00 0.00 61 1012.9
20260507145412 10 284 4.8 8.0 0.00 0.00 0.00 61 1013.0
20260507144909 10 330 14.5 16.1 0.00 0.00 0.00 59 1012.6
20260507144406 10 305 8.0 9.7 0.00 0.00 0.00 59 1012.6
20260507143903 10 333 4.8 4.8 0.00 0.00 0.00 60 1012.6
20260507143401 10 287 4.8 9.7 0.00 0.00 0.00 58 1012.7
20260507142857 10 292 3.2 3.2 0.00 0.00 0.00 57 1012.6
20260507142353 10 339 8.0 9.7 0.00 0.00 0.00 58 1012.6
20260507141850 10 245 4.8 4.8 0.00 0.00 0.00 56 1012.6
20260507141346 10 327 4.8 9.7 0.00 0.00 0.00 57 1012.9
20260507140843 10 308 12.9 14.5 0.00 0.00 0.00 55 1012.6
20260507140340 10 285 8.0 9.7 0.00 0.00 0.00 56 1012.7
20260507135838 10 266 1.6 3.2 0.00 0.00 0.00 60 1012.7
20260507135334 10 249 3.2 4.8 0.00 0.00 0.00 59 1012.7
20260507134832 10 228 1.6 3.2 0.00 0.00 0.00 59 1013.0
20260507134328 8 265 1.6 1.6 0.00 0.00 0.00 62 1012.9
20260507133824 9 281 1.6 1.6 0.00 0.00 0.00 62 1012.9
20260507133319 8 244 4.8 8.0 0.00 0.00 0.00 63 1013.0
20260507132818 8 273 3.2 3.2 0.00 0.00 0.00 64 1012.9
20260507132314 9 287 1.6 1.6 0.00 0.00 0.00 64 1012.9
20260507131812 9 278 0.0 0.0 0.00 0.00 0.00 65 1012.9
20260507131308 8 259 3.2 3.2 0.00 0.00 0.00 67 1012.6
20260507130805 8 274 4.8 4.8 0.00 0.00 0.00 68 1012.9
20260507130303 7 322 0.0 1.6 0.00 0.00 0.00 71 1012.9
20260507125801 7 289 4.8 4.8 0.00 0.00 0.00 72 1013.1
20260507125258 7 277 1.6 3.2 0.00 0.00 0.00 73 1012.9